Watford City, ND

2:27 AM CDT on July 22, 2017 (GMT -0500)
Watford City

Weather History for KS25 - October, 2012

Change the Weather History Date:

Tuesday, October 16, 2012

  Actual Average (KISN) Record (KISN)
Temperature  
Mean Temperature 50 °F -  
Max Temperature 60 °F 56 °F 82 °F (1945)
Min Temperature 39 °F 31 °F 9 °F (1992)
Degree Days  
Heating Degree Days 16    
Moisture  
Dew Point 45 °F    
Average Humidity 86    
Maximum Humidity 100    
Minimum Humidity 52    
Precipitation  
Precipitation 0.06 in - - ()
Sea Level Pressure  
Sea Level Pressure 29.41 in    
Wind  
Wind Speed 8 mph (SW)    
Max Wind Speed 24 mph    
Max Gust Speed 38 mph    
Visibility 10 miles    
Events Rain    
Averages and records for this station are not official NWS values.
T = Trace of Precipitation, MM = Missing Value Source: NWS Daily Summary

Daily Weather History Graph

Daily Weather History Graph

Search for Another Location

Airport or City:

Trip Planner

Search our weather history database for the weather conditions in past years. The results will help you decide how hot, cold, wet, or windy it might be!

Date:

Astronomy

Oct. 16, 2012 Rise Set
Actual Time 8:14 AM CDT 7:01 PM CDT
Civil Twilight 7:43 AM CDT 7:33 PM CDT
Nautical Twilight 7:07 AM CDT 8:08 PM CDT
Astronomical Twilight 6:31 AM CDT 8:44 PM CDT
Moon 9:49 AM CDT (10/16) 7:37 PM CDT (10/16)
Length of Visible Light 11h 49m
Length of Day
10h 47m
New Moon, 2% of the Moon is Illuminated
Oct 16
New Moon
Oct 21
First Quarter
Oct 29
Full
Nov 6
Last Quarter
Nov 13
New

Hourly Weather History & Observations

Time (CDT) Temp. Windchill Dew Point Humidity Pressure Visibility Wind Dir Wind Speed Gust Speed Precip Events Conditions
12:15 AM 50.0 °F - 46.4 °F 87% 29.63 in 10.0 mi WSW 8.1 mph - N/A   Clear
12:35 AM 48.2 °F - 46.4 °F 93% 29.63 in 10.0 mi WSW 6.9 mph - N/A   Clear
12:55 AM 48.2 °F - 46.4 °F 93% 29.62 in 10.0 mi WSW 8.1 mph - N/A   Clear
1:15 AM 46.4 °F 43.5 °F 46.4 °F 100% 29.62 in 10.0 mi SW 5.8 mph - N/A   Clear
1:35 AM 46.4 °F 42.9 °F 44.6 °F 93% 29.62 in 10.0 mi SW 6.9 mph - N/A   Clear
1:55 AM 46.4 °F 43.5 °F 46.4 °F 100% 29.62 in 10.0 mi SW 5.8 mph - N/A   Clear
2:15 AM 46.4 °F 43.5 °F 46.4 °F 100% 29.61 in 10.0 mi WSW 5.8 mph - N/A   Clear
2:35 AM 46.4 °F 44.3 °F 44.6 °F 93% 29.62 in 10.0 mi SW 4.6 mph - N/A   Clear
2:55 AM 46.4 °F 42.4 °F 44.6 °F 93% 29.61 in 10.0 mi SW 8.1 mph - N/A   Clear
3:15 AM 46.4 °F 42.4 °F 44.6 °F 93% 29.61 in 10.0 mi SSW 8.1 mph - N/A   Clear
3:35 AM 46.4 °F 42.4 °F 44.6 °F 93% 29.61 in 10.0 mi WSW 8.1 mph - N/A   Clear
3:55 AM 44.6 °F 40.2 °F 44.6 °F 100% 29.61 in 10.0 mi SW 8.1 mph - N/A   Clear
4:15 AM 42.8 °F 40.1 °F 42.8 °F 100% 29.61 in 10.0 mi SW 4.6 mph - N/A   Clear
4:35 AM 44.6 °F 42.2 °F 44.6 °F 100% 29.60 in 10.0 mi SW 4.6 mph - N/A   Clear
4:55 AM 44.6 °F 42.2 °F 44.6 °F 100% 29.59 in 10.0 mi WSW 4.6 mph - N/A   Clear
5:35 AM 41.0 °F 38.0 °F 41.0 °F 100% 29.56 in 10.0 mi SW 4.6 mph - N/A   Clear
5:55 AM 41.0 °F 38.0 °F 41.0 °F 100% 29.56 in 10.0 mi WSW 4.6 mph - N/A   Clear
6:15 AM 42.8 °F 40.1 °F 42.8 °F 100% 29.55 in 10.0 mi SW 4.6 mph - N/A   Clear
6:35 AM 41.0 °F 38.0 °F 41.0 °F 100% 29.55 in 10.0 mi SW 4.6 mph - N/A   Clear
6:55 AM 41.0 °F 39.0 °F 41.0 °F 100% 29.53 in 10.0 mi SW 3.5 mph - N/A   Clear
7:15 AM 39.2 °F 35.9 °F 39.2 °F 100% 29.53 in 10.0 mi SSW 4.6 mph - N/A   Clear
7:35 AM 41.0 °F 36.4 °F 41.0 °F 100% 29.53 in 10.0 mi SW 6.9 mph - N/A   Clear
7:55 AM 41.0 °F 34.7 °F 41.0 °F 100% 29.53 in 10.0 mi WSW 10.4 mph - N/A   Clear
8:15 AM 41.0 °F 35.8 °F 41.0 °F 100% 29.52 in 10.0 mi SW 8.1 mph - N/A   Clear
8:35 AM 42.8 °F 37.5 °F 42.8 °F 100% 29.49 in 10.0 mi SSW 9.2 mph - N/A   Clear
8:55 AM 46.4 °F 45.2 °F 44.6 °F 93% 29.49 in 10.0 mi SW 3.5 mph - N/A   Clear
9:15 AM 44.6 °F 43.1 °F 42.8 °F 93% 29.48 in 10.0 mi SSW 3.5 mph - N/A   Clear
9:35 AM 44.6 °F 43.1 °F 44.6 °F 100% 29.47 in 10.0 mi SW 3.5 mph - N/A   Clear
9:55 AM 46.4 °F 44.3 °F 44.6 °F 93% 29.46 in 10.0 mi WSW 4.6 mph - N/A   Clear
10:15 AM 46.4 °F 44.3 °F 46.4 °F 100% 29.47 in 10.0 mi West 4.6 mph - N/A   Clear
10:35 AM 48.2 °F - 46.4 °F 93% 29.45 in 10.0 mi SSW 3.5 mph - N/A   Clear
10:55 AM 51.8 °F - 48.2 °F 88% 29.44 in 10.0 mi SSW 9.2 mph - N/A   Clear
11:15 AM 55.4 °F - 46.4 °F 72% 29.43 in 10.0 mi SW 10.4 mph - N/A   Clear
11:35 AM 57.2 °F - 44.6 °F 63% 29.40 in 10.0 mi SW 12.7 mph - N/A   Clear
11:55 AM 57.2 °F - 44.6 °F 63% 29.40 in 10.0 mi SSW 13.8 mph 19.6 mph N/A   Clear
12:15 PM 57.2 °F - 44.6 °F 63% 29.40 in 10.0 mi SSW 15.0 mph - N/A   Partly Cloudy
12:35 PM 59.0 °F - 44.6 °F 59% 29.39 in 10.0 mi SW 11.5 mph - N/A   Clear
12:55 PM 59.0 °F - 44.6 °F 59% 29.37 in 10.0 mi SW 13.8 mph 19.6 mph N/A   Clear
1:15 PM 60.8 °F - 42.8 °F 52% 29.36 in 10.0 mi South 9.2 mph - N/A   Mostly Cloudy
1:35 PM 60.8 °F - 42.8 °F 52% 29.34 in 10.0 mi South 12.7 mph - N/A   Mostly Cloudy
1:55 PM 60.8 °F - 42.8 °F 52% 29.32 in 10.0 mi South 12.7 mph - N/A   Mostly Cloudy
2:15 PM 59.0 °F - 42.8 °F 55% 29.31 in 10.0 mi South 11.5 mph - N/A   Mostly Cloudy
2:35 PM 60.8 °F - 42.8 °F 52% 29.29 in 10.0 mi South 9.2 mph - N/A   Overcast
2:55 PM 60.8 °F - 42.8 °F 52% 29.28 in 10.0 mi South 9.2 mph - N/A   Overcast
3:15 PM 60.8 °F - 42.8 °F 52% 29.28 in 10.0 mi SSW 11.5 mph - N/A   Mostly Cloudy
3:35 PM 60.8 °F - 42.8 °F 52% 29.29 in 10.0 mi SW 11.5 mph - N/A   Mostly Cloudy
3:55 PM 60.8 °F - 44.6 °F 55% 29.29 in 10.0 mi WSW 18.4 mph 23.0 mph N/A   Overcast
4:15 PM 57.2 °F - 46.4 °F 67% 29.29 in 10.0 mi SW 18.4 mph 25.3 mph N/A   Mostly Cloudy
4:35 PM 53.6 °F - 50.0 °F 88% 29.29 in 5.0 mi SW 12.7 mph - N/A   Overcast
4:55 PM 53.6 °F - 50.0 °F 88% 29.29 in 5.0 mi SW 10.4 mph - N/A Rain Light Rain
5:15 PM 53.6 °F - 50.0 °F 88% 29.29 in 3.0 mi SW 9.2 mph - N/A Rain Light Rain
5:35 PM 53.6 °F - 51.8 °F 94% 29.28 in 3.0 mi WSW 9.2 mph - 0.03 in Rain Light Rain
5:55 PM 53.6 °F - 51.8 °F 94% 29.27 in 3.0 mi West 6.9 mph - 0.06 in Rain Light Rain
6:15 PM 53.6 °F - 51.8 °F 94% 29.25 in 10.0 mi South 4.6 mph - N/A Rain Light Rain
6:35 PM 51.8 °F - 51.8 °F 100% 29.23 in 10.0 mi South 8.1 mph - N/A   Mostly Cloudy
6:55 PM 51.8 °F - 51.8 °F 100% 29.23 in 10.0 mi South 10.4 mph - N/A   Scattered Clouds
7:15 PM 51.8 °F - 50.0 °F 94% 29.23 in 10.0 mi SSW 9.2 mph - N/A   Partly Cloudy
7:35 PM 51.8 °F - 50.0 °F 94% 29.26 in 10.0 mi West 6.9 mph - N/A   Mostly Cloudy
7:55 PM 51.8 °F - 50.0 °F 94% 29.27 in 10.0 mi WSW 6.9 mph - N/A   Overcast
8:15 PM 51.8 °F - 51.8 °F 100% 29.27 in 10.0 mi West 9.2 mph 17.3 mph N/A   Overcast
8:35 PM 51.8 °F - 50.0 °F 94% 29.27 in 10.0 mi WSW 10.4 mph - N/A   Mostly Cloudy
8:55 PM 50.0 °F - 50.0 °F 100% 29.27 in 10.0 mi SW 10.4 mph - N/A   Mostly Cloudy
9:15 PM 51.8 °F - 50.0 °F 94% 29.27 in 10.0 mi WSW 11.5 mph - N/A   Overcast
9:35 PM 50.0 °F - 50.0 °F 100% 29.27 in 10.0 mi WSW 10.4 mph - N/A   Mostly Cloudy
9:55 PM 51.8 °F - 50.0 °F 94% 29.26 in 10.0 mi West 10.4 mph 17.3 mph N/A   Mostly Cloudy
10:15 PM 50.0 °F - 48.2 °F 94% 29.27 in 10.0 mi WSW 12.7 mph - N/A   Overcast
10:35 PM 50.0 °F - 46.4 °F 87% 29.27 in 10.0 mi WSW 10.4 mph 16.1 mph N/A   Overcast
10:55 PM 51.8 °F - 41.0 °F 67% 29.27 in 10.0 mi West 21.9 mph 32.2 mph N/A   Overcast
11:15 PM 51.8 °F - 41.0 °F 67% 29.28 in 10.0 mi West 20.7 mph 33.4 mph N/A   Overcast
11:35 PM 50.0 °F - 39.2 °F 66% 29.29 in 10.0 mi West 23.0 mph 38.0 mph N/A   Scattered Clouds
11:55 PM 48.2 °F - 39.2 °F 71% 29.28 in 10.0 mi West 24.2 mph 34.5 mph N/A   Clear